Time,TemperatureF,DewpointF,PressureIn,WindDirection,WindDirectionDegrees,WindSpeedMPH,WindSpeedGustMPH,Humidity,HourlyPrecipIn,Conditions,Clouds,dailyrainin,SoftwareType,DateUTC
2013-03-10 00:00:00,42.1,38.5,30.12,South,169,0.0,8.0,87,0.00,,,0.00,Wunderground v.1.15,2013-03-10 05:00:00,
2013-03-10 00:02:00,41.9,38.3,30.12,South,169,0.0,8.0,87,0.00,,,0.00,Wunderground v.1.15,2013-03-10 05:02:00,
2013-03-10 00:03:00,41.9,38.3,30.12,South,169,0.0,8.0,87,0.00,,,0.00,Wunderground v.1.15,2013-03-10 05:03:00,
2013-03-10 00:04:00,41.9,38.3,30.12,South,169,0.0,8.0,87,0.00,,,0.00,Wunderground v.1.15,2013-03-10 05:04:00,
2013-03-10 00:10:00,41.6,38.3,30.12,South,169,0.0,8.0,88,0.00,,,0.00,Wunderground v.1.15,2013-03-10 05:10:00,
2013-03-10 00:15:00,41.5,38.2,30.12,South,169,0.0,8.0,88,0.00,,,0.00,Wunderground v.1.15,2013-03-10 05:15:00,
2013-03-10 00:21:00,41.3,38.3,30.12,South,169,0.0,8.0,89,0.00,,,0.00,Wunderground v.1.15,2013-03-10 05:21:00,
2013-03-10 00:27:00,41.2,38.2,30.12,South,169,0.0,8.0,89,0.00,,,0.00,Wunderground v.1.15,2013-03-10 05:27:00,
2013-03-10 00:33:00,41.1,38.1,30.12,South,169,0.0,8.0,89,0.00,,,0.00,Wunderground v.1.15,2013-03-10 05:33:00,
2013-03-10 00:39:00,40.9,37.9,30.12,South,169,0.0,8.0,89,0.00,,,0.00,Wunderground v.1.15,2013-03-10 05:39:00,
2013-03-10 00:45:00,40.6,37.6,30.12,South,169,0.0,8.0,89,0.00,,,0.00,Wunderground v.1.15,2013-03-10 05:45:00,
2013-03-10 00:51:00,40.5,37.5,30.12,South,169,0.0,8.0,89,0.00,,,0.00,Wunderground v.1.15,2013-03-10 05:51:00,
2013-03-10 00:57:00,40.3,37.6,30.12,South,169,0.0,8.0,90,0.00,,,0.00,Wunderground v.1.15,2013-03-10 05:57:00,
2013-03-10 01:03:00,40.3,37.6,30.13,South,169,0.0,8.0,90,0.00,,,0.00,Wunderground v.1.15,2013-03-10 06:03:00,
2013-03-10 01:08:00,40.2,37.5,30.13,South,169,0.0,8.0,90,0.00,,,0.00,Wunderground v.1.15,2013-03-10 06:08:00,
2013-03-10 01:13:00,40.1,37.4,30.12,South,169,0.0,8.0,90,0.00,,,0.00,Wunderground v.1.15,2013-03-10 06:13:00,
2013-03-10 01:18:00,40.1,37.4,30.12,South,169,0.0,8.0,90,0.00,,,0.00,Wunderground v.1.15,2013-03-10 06:18:00,
2013-03-10 01:24:00,39.9,37.2,30.12,South,169,0.0,8.0,90,0.00,,,0.00,Wunderground v.1.15,2013-03-10 06:24:00,
2013-03-10 01:29:00,39.8,37.1,30.12,South,169,0.0,8.0,90,0.00,,,0.00,Wunderground v.1.15,2013-03-10 06:29:00,
2013-03-10 01:35:00,39.8,37.1,30.12,South,169,0.0,8.0,90,0.00,,,0.00,Wunderground v.1.15,2013-03-10 06:35:00,
2013-03-10 01:41:00,39.6,36.9,30.12,South,169,0.0,8.0,90,0.00,,,0.00,Wunderground v.1.15,2013-03-10 06:41:00,
2013-03-10 01:47:00,39.5,36.8,30.11,South,169,0.0,8.0,90,0.00,,,0.00,Wunderground v.1.15,2013-03-10 06:47:00,
2013-03-10 01:53:00,39.3,36.6,30.11,South,169,0.0,8.0,90,0.00,,,0.00,Wunderground v.1.15,2013-03-10 06:53:00,
2013-03-10 01:59:00,39.2,36.5,30.11,South,169,0.0,8.0,90,0.00,,,0.00,Wunderground v.1.15,2013-03-10 06:59:00,
2013-03-10 03:04:00,39.1,36.7,30.11,South,169,0.0,8.0,91,0.00,,,0.00,Wunderground v.1.15,2013-03-10 07:04:00,
2013-03-10 03:10:00,38.9,36.5,30.11,South,169,0.0,8.0,91,0.00,,,0.00,Wunderground v.1.15,2013-03-10 07:10:00,
2013-03-10 03:16:00,38.9,36.5,30.11,South,169,0.0,8.0,91,0.00,,,0.00,Wunderground v.1.15,2013-03-10 07:16:00,
2013-03-10 03:22:00,38.9,36.5,30.11,South,169,0.0,8.0,91,0.00,,,0.00,Wunderground v.1.15,2013-03-10 07:22:00,
2013-03-10 03:28:00,38.8,36.4,30.11,South,169,0.0,8.0,91,0.00,,,0.00,Wunderground v.1.15,2013-03-10 07:28:00,
2013-03-10 03:34:00,38.8,36.4,30.10,South,169,0.0,8.0,91,0.00,,,0.00,Wunderground v.1.15,2013-03-10 07:34:00,
2013-03-10 03:40:00,38.6,36.5,30.10,South,169,0.0,8.0,92,0.00,,,0.00,Wunderground v.1.15,2013-03-10 07:40:00,
2013-03-10 03:46:00,38.5,36.4,30.09,South,169,0.0,8.0,92,0.00,,,0.00,Wunderground v.1.15,2013-03-10 07:46:00,
2013-03-10 03:52:00,38.5,36.4,30.09,South,169,0.0,8.0,92,0.00,,,0.00,Wunderground v.1.15,2013-03-10 07:52:00,
2013-03-10 03:58:00,38.5,36.4,30.09,South,169,0.0,8.0,92,0.00,,,0.00,Wunderground v.1.15,2013-03-10 07:58:00,
2013-03-10 04:04:00,38.5,36.4,30.09,South,169,0.0,8.0,92,0.00,,,0.00,Wunderground v.1.15,2013-03-10 08:04:00,
2013-03-10 04:10:00,38.3,36.2,30.09,South,169,0.0,8.0,92,0.00,,,0.00,Wunderground v.1.15,2013-03-10 08:10:00,
2013-03-10 04:16:00,38.3,36.2,30.09,South,169,0.0,8.0,92,0.00,,,0.00,Wunderground v.1.15,2013-03-10 08:16:00,
2013-03-10 04:22:00,38.2,36.1,30.09,South,169,0.0,8.0,92,0.00,,,0.00,Wunderground v.1.15,2013-03-10 08:22:00,
2013-03-10 04:27:00,38.2,36.1,30.09,South,169,0.0,8.0,92,0.00,,,0.00,Wunderground v.1.15,2013-03-10 08:27:00,
2013-03-10 04:33:00,38.0,35.9,30.08,South,169,0.0,8.0,92,0.00,,,0.00,Wunderground v.1.15,2013-03-10 08:33:00,
2013-03-10 04:39:00,37.9,35.8,30.08,South,169,0.0,8.0,92,0.00,,,0.00,Wunderground v.1.15,2013-03-10 08:39:00,
2013-03-10 04:45:00,37.8,35.7,30.08,South,169,0.0,8.0,92,0.00,,,0.00,Wunderground v.1.15,2013-03-10 08:45:00,
2013-03-10 04:51:00,37.8,35.7,30.08,South,169,0.0,8.0,92,0.00,,,0.00,Wunderground v.1.15,2013-03-10 08:51:00,
2013-03-10 04:57:00,37.6,35.5,30.08,South,169,0.0,8.0,92,0.00,,,0.00,Wunderground v.1.15,2013-03-10 08:57:00,
2013-03-10 05:03:00,37.5,35.4,30.09,South,169,0.0,8.0,92,0.00,,,0.00,Wunderground v.1.15,2013-03-10 09:03:00,
2013-03-10 05:09:00,37.3,35.2,30.09,South,169,0.0,8.0,92,0.00,,,0.00,Wunderground v.1.15,2013-03-10 09:09:00,
2013-03-10 05:15:00,37.3,35.5,30.09,South,169,0.0,8.0,93,0.00,,,0.00,Wunderground v.1.15,2013-03-10 09:15:00,
2013-03-10 05:21:00,37.3,35.5,30.09,South,169,0.0,8.0,93,0.00,,,0.00,Wunderground v.1.15,2013-03-10 09:21:00,
2013-03-10 05:27:00,37.2,35.1,30.09,South,169,0.0,8.0,92,0.00,,,0.00,Wunderground v.1.15,2013-03-10 09:27:00,
2013-03-10 05:33:00,37.2,35.4,30.09,South,169,0.0,8.0,93,0.00,,,0.00,Wunderground v.1.15,2013-03-10 09:33:00,
2013-03-10 05:39:00,37.0,35.2,30.09,South,169,0.0,8.0,93,0.00,,,0.00,Wunderground v.1.15,2013-03-10 09:39:00,
2013-03-10 05:45:00,36.9,35.1,30.10,South,169,0.0,8.0,93,0.00,,,0.00,Wunderground v.1.15,2013-03-10 09:45:00,
2013-03-10 05:51:00,36.9,35.1,30.10,South,169,0.0,8.0,93,0.00,,,0.00,Wunderground v.1.15,2013-03-10 09:51:00,
2013-03-10 05:57:00,36.8,35.0,30.10,South,169,0.0,8.0,93,0.00,,,0.00,Wunderground v.1.15,2013-03-10 09:57:00,
2013-03-10 06:03:00,36.8,35.0,30.10,South,169,0.0,8.0,93,0.00,,,0.00,Wunderground v.1.15,2013-03-10 10:03:00,
2013-03-10 06:08:00,36.6,34.8,30.10,South,169,0.0,8.0,93,0.00,,,0.00,Wunderground v.1.15,2013-03-10 10:08:00,
2013-03-10 06:14:00,36.6,34.8,30.11,South,169,0.0,8.0,93,0.00,,,0.00,Wunderground v.1.15,2013-03-10 10:14:00,
2013-03-10 06:20:00,36.6,34.8,30.11,South,169,0.0,8.0,93,0.00,,,0.00,Wunderground v.1.15,2013-03-10 10:20:00,
2013-03-10 06:26:00,36.5,34.7,30.11,South,169,0.0,8.0,93,0.00,,,0.00,Wunderground v.1.15,2013-03-10 10:26:00,
2013-03-10 06:32:00,36.5,34.7,30.10,South,169,0.0,8.0,93,0.00,,,0.00,Wunderground v.1.15,2013-03-10 10:32:00,
2013-03-10 06:38:00,36.5,34.7,30.10,South,169,0.0,8.0,93,0.00,,,0.00,Wunderground v.1.15,2013-03-10 10:38:00,
2013-03-10 06:44:00,36.5,34.7,30.10,South,169,0.0,8.0,93,0.00,,,0.00,Wunderground v.1.15,2013-03-10 10:44:00,
2013-03-10 06:50:00,36.5,34.7,30.10,South,169,0.0,8.0,93,0.00,,,0.00,Wunderground v.1.15,2013-03-10 10:50:00,
2013-03-10 06:56:00,36.5,34.7,30.10,South,169,0.0,8.0,93,0.00,,,0.00,Wunderground v.1.15,2013-03-10 10:56:00,
2013-03-10 07:01:00,36.5,34.7,30.11,South,169,0.0,8.0,93,0.00,,,0.00,Wunderground v.1.15,2013-03-10 11:01:00,
2013-03-10 07:06:00,36.5,34.7,30.11,South,169,0.0,8.0,93,0.00,,,0.00,Wunderground v.1.15,2013-03-10 11:06:00,
2013-03-10 07:11:00,36.5,34.7,30.11,South,169,0.0,8.0,93,0.00,,,0.00,Wunderground v.1.15,2013-03-10 11:11:00,
2013-03-10 07:16:00,36.5,34.7,30.11,South,169,0.0,8.0,93,0.00,,,0.00,Wunderground v.1.15,2013-03-10 11:16:00,
2013-03-10 07:22:00,36.5,34.9,30.11,South,169,0.0,8.0,94,0.00,,,0.00,Wunderground v.1.15,2013-03-10 11:22:00,
2013-03-10 07:27:00,36.5,34.9,30.11,South,169,0.0,8.0,94,0.00,,,0.00,Wunderground v.1.15,2013-03-10 11:27:00,
2013-03-10 07:33:00,36.3,34.7,30.11,South,169,0.0,8.0,94,0.00,,,0.00,Wunderground v.1.15,2013-03-10 11:33:00,
2013-03-10 07:39:00,36.5,34.9,30.11,South,169,0.0,8.0,94,0.00,,,0.00,Wunderground v.1.15,2013-03-10 11:39:00,
2013-03-10 07:45:00,36.5,34.9,30.11,South,169,0.0,8.0,94,0.00,,,0.00,Wunderground v.1.15,2013-03-10 11:45:00,
2013-03-10 07:51:00,36.6,35.0,30.11,South,169,0.0,8.0,94,0.00,,,0.00,Wunderground v.1.15,2013-03-10 11:51:00,
2013-03-10 07:57:00,36.9,35.3,30.11,South,169,0.0,8.0,94,0.00,,,0.00,Wunderground v.1.15,2013-03-10 11:57:00,
2013-03-10 08:03:00,36.9,35.3,30.12,South,169,0.0,8.0,94,0.00,,,0.00,Wunderground v.1.15,2013-03-10 12:03:00,
2013-03-10 08:09:00,37.0,35.4,30.12,South,169,0.0,8.0,94,0.00,,,0.00,Wunderground v.1.15,2013-03-10 12:09:00,
2013-03-10 08:15:00,37.3,36.0,30.12,South,169,0.0,8.0,95,0.00,,,0.00,Wunderground v.1.15,2013-03-10 12:15:00,
2013-03-10 08:21:00,37.6,36.3,30.12,South,169,0.0,8.0,95,0.00,,,0.00,Wunderground v.1.15,2013-03-10 12:21:00,
2013-03-10 08:27:00,37.9,36.6,30.12,South,169,0.0,8.0,95,0.00,,,0.00,Wunderground v.1.15,2013-03-10 12:27:00,
2013-03-10 08:33:00,38.3,37.0,30.12,South,169,0.0,8.0,95,0.00,,,0.00,Wunderground v.1.15,2013-03-10 12:33:00,
2013-03-10 08:39:00,38.6,37.3,30.12,South,169,0.0,8.0,95,0.00,,,0.00,Wunderground v.1.15,2013-03-10 12:39:00,
2013-03-10 08:45:00,39.1,37.8,30.12,South,169,0.0,8.0,95,0.00,,,0.00,Wunderground v.1.15,2013-03-10 12:45:00,
2013-03-10 08:51:00,39.6,38.3,30.12,South,169,0.0,8.0,95,0.00,,,0.00,Wunderground v.1.15,2013-03-10 12:51:00,
2013-03-10 08:57:00,40.3,39.3,30.12,South,169,0.0,8.0,96,0.00,,,0.00,Wunderground v.1.15,2013-03-10 12:57:00,
2013-03-10 09:02:00,41.3,40.2,30.13,South,169,0.0,8.0,96,0.00,,,0.00,Wunderground v.1.15,2013-03-10 13:02:00,
2013-03-10 09:07:00,42.6,41.8,30.13,South,169,0.0,8.0,97,0.00,,,0.00,Wunderground v.1.15,2013-03-10 13:07:00,
2013-03-10 09:13:00,43.8,43.0,30.13,South,169,0.0,8.0,97,0.00,,,0.00,Wunderground v.1.15,2013-03-10 13:13:00,
2013-03-10 09:19:00,45.1,44.0,30.13,South,169,0.0,8.0,96,0.00,,,0.00,Wunderground v.1.15,2013-03-10 13:19:00,
2013-03-10 09:25:00,46.2,45.1,30.13,South,169,0.0,8.0,96,0.00,,,0.00,Wunderground v.1.15,2013-03-10 13:25:00,
2013-03-10 09:31:00,47.3,45.7,30.14,South,169,0.0,8.0,94,0.00,,,0.00,Wunderground v.1.15,2013-03-10 13:31:00,
2013-03-10 09:37:00,48.5,46.3,30.14,South,169,0.0,8.0,92,0.00,,,0.00,Wunderground v.1.15,2013-03-10 13:37:00,
2013-03-10 09:43:00,49.8,46.1,30.14,South,169,0.0,8.0,87,0.00,,,0.00,Wunderground v.1.15,2013-03-10 13:43:00,
2013-03-10 09:49:00,50.8,45.5,30.14,South,169,0.0,8.0,82,0.00,,,0.00,Wunderground v.1.15,2013-03-10 13:49:00,
2013-03-10 09:55:00,52.6,44.2,30.14,South,169,0.0,8.0,73,0.00,,,0.00,Wunderground v.1.15,2013-03-10 13:55:00,
2013-03-10 10:00:00,53.5,44.0,30.15,SSE,158,0.0,8.0,70,0.00,,,0.00,Wunderground v.1.15,2013-03-10 14:00:00,
2013-03-10 10:06:00,54.2,43.1,30.15,ESE,103,1.0,8.0,66,0.00,,,0.00,Wunderground v.1.15,2013-03-10 14:06:00,
2013-03-10 10:11:00,55.0,43.4,30.15,ESE,105,2.0,8.0,65,0.00,,,0.00,Wunderground v.1.15,2013-03-10 14:11:00,
2013-03-10 10:16:00,55.7,41.1,30.15,East,101,3.0,8.0,58,0.00,,,0.00,Wunderground v.1.15,2013-03-10 14:16:00,
2013-03-10 10:22:00,56.2,41.2,30.15,SE,126,5.0,8.0,57,0.00,,,0.00,Wunderground v.1.15,2013-03-10 14:22:00,
2013-03-10 10:28:00,56.7,41.2,30.15,ESE,119,3.0,8.0,56,0.00,,,0.00,Wunderground v.1.15,2013-03-10 14:28:00,
2013-03-10 10:34:00,56.9,39.4,30.15,ESE,103,3.0,8.0,52,0.00,,,0.00,Wunderground v.1.15,2013-03-10 14:34:00,
2013-03-10 10:40:00,57.0,38.0,30.15,SE,129,3.0,8.0,49,0.00,,,0.00,Wunderground v.1.15,2013-03-10 14:40:00,
2013-03-10 10:46:00,57.5,37.9,30.15,ENE,73,1.0,8.0,48,0.00,,,0.00,Wunderground v.1.15,2013-03-10 14:46:00,
2013-03-10 10:52:00,58.1,36.9,30.15,SE,140,2.0,2.0,45,0.00,,,0.00,Wunderground v.1.15,2013-03-10 14:52:00,
2013-03-10 10:58:00,58.6,35.0,30.15,SE,126,4.0,8.0,41,0.00,,,0.00,Wunderground v.1.15,2013-03-10 14:58:00,
2013-03-10 11:04:00,58.7,35.0,30.14,ESE,104,4.0,8.0,41,0.00,,,0.00,Wunderground v.1.15,2013-03-10 15:04:00,
2013-03-10 11:09:00,58.6,35.6,30.14,ESE,104,4.0,8.0,42,0.00,,,0.00,Wunderground v.1.15,2013-03-10 15:09:00,
2013-03-10 11:15:00,58.6,35.6,30.14,ESE,111,5.0,10.0,42,0.00,,,0.00,Wunderground v.1.15,2013-03-10 15:15:00,
2013-03-10 11:21:00,58.9,36.4,30.14,SSE,165,3.0,10.0,43,0.00,,,0.00,Wunderground v.1.15,2013-03-10 15:21:00,
2013-03-10 11:27:00,59.3,36.2,30.14,ESE,114,2.0,8.0,42,0.00,,,0.00,Wunderground v.1.15,2013-03-10 15:27:00,
2013-03-10 11:33:00,59.3,33.7,30.14,ESE,105,4.0,8.0,38,0.00,,,0.00,Wunderground v.1.15,2013-03-10 15:33:00,
2013-03-10 11:38:00,58.9,34.0,30.14,SSE,162,6.0,10.0,39,0.00,,,0.00,Wunderground v.1.15,2013-03-10 15:38:00,
2013-03-10 11:44:00,58.6,32.4,30.14,SE,132,5.0,8.0,37,0.00,,,0.00,Wunderground v.1.15,2013-03-10 15:44:00,
2013-03-10 11:50:00,58.9,33.3,30.14,ESE,118,4.0,8.0,38,0.00,,,0.00,Wunderground v.1.15,2013-03-10 15:50:00,
2013-03-10 11:56:00,59.5,33.9,30.14,SE,142,4.0,9.0,38,0.00,,,0.00,Wunderground v.1.15,2013-03-10 15:56:00,
2013-03-10 12:01:00,59.6,33.9,30.14,SSE,160,4.0,9.0,38,0.00,,,0.00,Wunderground v.1.15,2013-03-10 16:01:00,
2013-03-10 12:07:00,60.2,32.4,30.14,ESE,120,4.0,8.0,35,0.00,,,0.00,Wunderground v.1.15,2013-03-10 16:07:00,
2013-03-10 12:13:00,60.4,32.6,30.14,ESE,119,5.0,9.0,35,0.00,,,0.00,Wunderground v.1.15,2013-03-10 16:13:00,
2013-03-10 12:19:00,60.5,31.2,30.14,SSE,150,5.0,13.0,33,0.00,,,0.00,Wunderground v.1.15,2013-03-10 16:19:00,
2013-03-10 12:25:00,60.7,30.6,30.14,SE,140,5.0,8.0,32,0.00,,,0.00,Wunderground v.1.15,2013-03-10 16:25:00,
2013-03-10 12:31:00,61.0,30.1,30.14,ESE,105,3.0,8.0,31,0.00,,,0.00,Wunderground v.1.15,2013-03-10 16:31:00,
2013-03-10 12:37:00,61.2,27.8,30.14,East,86,5.0,14.0,28,0.00,,,0.00,Wunderground v.1.15,2013-03-10 16:37:00,
2013-03-10 12:43:00,60.4,28.0,30.14,South,174,6.0,8.0,29,0.00,,,0.00,Wunderground v.1.15,2013-03-10 16:43:00,
2013-03-10 12:48:00,59.8,29.1,30.14,SSE,151,5.0,9.0,31,0.00,,,0.00,Wunderground v.1.15,2013-03-10 16:48:00,
2013-03-10 12:53:00,59.8,29.9,30.14,SE,126,4.0,8.0,32,0.00,,,0.00,Wunderground v.1.15,2013-03-10 16:53:00,
2013-03-10 12:59:00,60.1,30.9,30.14,NE,56,5.0,10.0,33,0.00,,,0.00,Wunderground v.1.15,2013-03-10 16:59:00,
2013-03-10 13:05:00,60.5,30.5,30.14,East,90,5.0,8.0,32,0.00,,,0.00,Wunderground v.1.15,2013-03-10 17:05:00,
2013-03-10 13:11:00,61.0,30.1,30.14,SSE,163,3.0,9.0,31,0.00,,,0.00,Wunderground v.1.15,2013-03-10 17:11:00,
2013-03-10 13:17:00,61.5,30.6,30.14,SE,133,4.0,9.0,31,0.00,,,0.00,Wunderground v.1.15,2013-03-10 17:17:00,
2013-03-10 13:23:00,61.3,29.6,30.14,ENE,75,5.0,8.0,30,0.00,,,0.00,Wunderground v.1.15,2013-03-10 17:23:00,
2013-03-10 13:29:00,62.0,30.2,30.13,SSE,158,5.0,8.0,30,0.00,,,0.00,Wunderground v.1.15,2013-03-10 17:29:00,
2013-03-10 13:35:00,61.8,28.3,30.13,SSE,161,5.0,8.0,28,0.00,,,0.00,Wunderground v.1.15,2013-03-10 17:35:00,
2013-03-10 13:41:00,61.6,28.1,30.13,ESE,109,4.0,8.0,28,0.00,,,0.00,Wunderground v.1.15,2013-03-10 17:41:00,
2013-03-10 13:47:00,62.1,30.3,30.12,East,98,6.0,8.0,30,0.00,,,0.00,Wunderground v.1.15,2013-03-10 17:47:00,
2013-03-10 13:53:00,62.6,29.9,30.12,ESE,107,6.0,10.0,29,0.00,,,0.00,Wunderground v.1.15,2013-03-10 17:53:00,
2013-03-10 13:59:00,62.4,27.9,30.12,East,98,6.0,10.0,27,0.00,,,0.00,Wunderground v.1.15,2013-03-10 17:59:00,
2013-03-10 14:04:00,62.3,28.7,30.12,ESE,103,5.0,8.0,28,0.00,,,0.00,Wunderground v.1.15,2013-03-10 18:04:00,
2013-03-10 14:10:00,62.4,28.8,30.12,SE,142,5.0,12.0,28,0.00,,,0.00,Wunderground v.1.15,2013-03-10 18:10:00,
2013-03-10 14:16:00,62.6,29.0,30.11,ESE,113,4.0,8.0,28,0.00,,,0.00,Wunderground v.1.15,2013-03-10 18:16:00,
2013-03-10 14:22:00,62.6,27.2,30.11,SSE,165,5.0,5.0,26,0.00,,,0.00,Wunderground v.1.15,2013-03-10 18:22:00,
2013-03-10 14:28:00,62.6,28.1,30.11,East,94,6.0,9.0,27,0.00,,,0.00,Wunderground v.1.15,2013-03-10 18:28:00,
2013-03-10 14:34:00,62.9,29.3,30.11,SSE,155,4.0,8.0,28,0.00,,,0.00,Wunderground v.1.15,2013-03-10 18:34:00,
2013-03-10 14:40:00,62.7,30.0,30.11,SE,136,4.0,9.0,29,0.00,,,0.00,Wunderground v.1.15,2013-03-10 18:40:00,
2013-03-10 14:45:00,62.6,29.0,30.10,ESE,103,5.0,9.0,28,0.00,,,0.00,Wunderground v.1.15,2013-03-10 18:45:00,
2013-03-10 14:51:00,62.9,30.1,30.10,ESE,106,6.0,9.0,29,0.00,,,0.00,Wunderground v.1.15,2013-03-10 18:51:00,
2013-03-10 14:56:00,63.2,31.2,30.10,ESE,121,5.0,9.0,30,0.00,,,0.00,Wunderground v.1.15,2013-03-10 18:56:00,
2013-03-10 15:02:00,63.5,31.5,30.10,SSE,156,5.0,5.0,30,0.00,,,0.00,Wunderground v.1.15,2013-03-10 19:02:00,
2013-03-10 15:07:00,63.7,32.5,30.10,ESE,118,5.0,9.0,31,0.00,,,0.00,Wunderground v.1.15,2013-03-10 19:07:00,
2013-03-10 15:13:00,63.7,35.5,30.09,SSE,155,5.0,8.0,35,0.00,,,0.00,Wunderground v.1.15,2013-03-10 19:13:00,
2013-03-10 15:19:00,63.1,35.0,30.09,SSE,164,4.0,8.0,35,0.00,,,0.00,Wunderground v.1.15,2013-03-10 19:19:00,
2013-03-10 15:25:00,63.1,35.0,30.09,SE,128,3.0,8.0,35,0.00,,,0.00,Wunderground v.1.15,2013-03-10 19:25:00,
2013-03-10 15:31:00,63.2,33.6,30.09,SSE,161,4.0,12.0,33,0.00,,,0.00,Wunderground v.1.15,2013-03-10 19:31:00,
2013-03-10 15:37:00,62.6,33.8,30.09,East,96,4.0,8.0,34,0.00,,,0.00,Wunderground v.1.15,2013-03-10 19:37:00,
2013-03-10 15:42:00,63.1,32.7,30.09,SE,135,4.0,4.0,32,0.00,,,0.00,Wunderground v.1.15,2013-03-10 19:42:00,
2013-03-10 15:48:00,64.0,34.3,30.09,SE,141,3.0,8.0,33,0.00,,,0.00,Wunderground v.1.15,2013-03-10 19:48:00,
2013-03-10 15:54:00,63.7,28.1,30.09,East,92,3.0,9.0,26,0.00,,,0.00,Wunderground v.1.15,2013-03-10 19:54:00,
2013-03-10 15:59:00,63.4,26.9,30.09,East,101,4.0,9.0,25,0.00,,,0.00,Wunderground v.1.15,2013-03-10 19:59:00,
2013-03-10 16:04:00,63.4,27.9,30.09,ESE,102,3.0,8.0,26,0.00,,,0.00,Wunderground v.1.15,2013-03-10 20:04:00,
2013-03-10 16:09:00,63.4,27.9,30.09,SSE,148,3.0,8.0,26,0.00,,,0.00,Wunderground v.1.15,2013-03-10 20:09:00,
2013-03-10 16:14:00,62.7,25.3,30.09,SSE,159,5.0,10.0,24,0.00,,,0.00,Wunderground v.1.15,2013-03-10 20:14:00,
2013-03-10 16:20:00,62.7,25.3,30.09,SE,146,5.0,10.0,24,0.00,,,0.00,Wunderground v.1.15,2013-03-10 20:20:00,
2013-03-10 16:25:00,62.4,26.1,30.09,SSE,159,5.0,9.0,25,0.00,,,0.00,Wunderground v.1.15,2013-03-10 20:25:00,
2013-03-10 16:31:00,62.9,26.5,30.08,SSE,168,4.0,9.0,25,0.00,,,0.00,Wunderground v.1.15,2013-03-10 20:31:00,
2013-03-10 16:37:00,63.5,25.0,30.08,SE,124,4.0,8.0,23,0.00,,,0.00,Wunderground v.1.15,2013-03-10 20:37:00,
2013-03-10 16:42:00,63.9,25.3,30.08,ESE,121,4.0,4.0,23,0.00,,,0.00,Wunderground v.1.15,2013-03-10 20:42:00,
2013-03-10 16:47:00,64.2,24.5,30.08,ESE,113,4.0,9.0,22,0.00,,,0.00,Wunderground v.1.15,2013-03-10 20:47:00,
2013-03-10 16:52:00,64.0,24.4,30.08,ESE,121,3.0,8.0,22,0.00,,,0.00,Wunderground v.1.15,2013-03-10 20:52:00,
2013-03-10 16:58:00,63.7,25.2,30.08,East,84,2.0,8.0,23,0.00,,,0.00,Wunderground v.1.15,2013-03-10 20:58:00,
2013-03-10 17:04:00,63.2,24.7,30.08,ESE,121,3.0,8.0,23,0.00,,,0.00,Wunderground v.1.15,2013-03-10 21:04:00,
2013-03-10 17:10:00,62.9,26.5,30.08,ESE,113,3.0,8.0,25,0.00,,,0.00,Wunderground v.1.15,2013-03-10 21:10:00,
2013-03-10 17:15:00,62.9,26.5,30.08,ENE,72,3.0,8.0,25,0.00,,,0.00,Wunderground v.1.15,2013-03-10 21:15:00,
2013-03-10 17:21:00,62.4,27.0,30.08,SE,130,3.0,8.0,26,0.00,,,0.00,Wunderground v.1.15,2013-03-10 21:21:00,
2013-03-10 17:27:00,62.1,27.7,30.08,SE,126,2.0,9.0,27,0.00,,,0.00,Wunderground v.1.15,2013-03-10 21:27:00,
2013-03-10 17:33:00,62.3,27.9,30.08,SE,135,3.0,8.0,27,0.00,,,0.00,Wunderground v.1.15,2013-03-10 21:33:00,
2013-03-10 17:38:00,62.6,28.1,30.08,SE,134,2.0,8.0,27,0.00,,,0.00,Wunderground v.1.15,2013-03-10 21:38:00,
2013-03-10 17:44:00,62.1,28.6,30.08,SE,143,2.0,8.0,28,0.00,,,0.00,Wunderground v.1.15,2013-03-10 21:44:00,
2013-03-10 17:49:00,62.3,28.7,30.08,SSE,148,2.0,8.0,28,0.00,,,0.00,Wunderground v.1.15,2013-03-10 21:49:00,
2013-03-10 17:55:00,62.1,29.4,30.08,SSE,148,1.0,8.0,29,0.00,,,0.00,Wunderground v.1.15,2013-03-10 21:55:00,
2013-03-10 18:01:00,60.9,27.5,30.08,SSE,162,3.0,8.0,28,0.00,,,0.00,Wunderground v.1.15,2013-03-10 22:01:00,
2013-03-10 18:06:00,60.2,26.9,30.08,SSE,161,3.0,8.0,28,0.00,,,0.00,Wunderground v.1.15,2013-03-10 22:06:00,
2013-03-10 18:12:00,59.6,26.4,30.08,SSE,148,3.0,8.0,28,0.00,,,0.00,Wunderground v.1.15,2013-03-10 22:12:00,
2013-03-10 18:18:00,59.8,26.6,30.08,ESE,122,3.0,8.0,28,0.00,,,0.00,Wunderground v.1.15,2013-03-10 22:18:00,
2013-03-10 18:23:00,59.6,27.3,30.08,ESE,121,3.0,8.0,29,0.00,,,0.00,Wunderground v.1.15,2013-03-10 22:23:00,
2013-03-10 18:28:00,59.5,28.0,30.08,SE,129,2.0,8.0,30,0.00,,,0.00,Wunderground v.1.15,2013-03-10 22:28:00,
2013-03-10 18:34:00,59.0,28.4,30.08,ESE,121,2.0,8.0,31,0.00,,,0.00,Wunderground v.1.15,2013-03-10 22:34:00,
2013-03-10 18:40:00,58.4,29.4,30.08,ESE,121,1.0,8.0,33,0.00,,,0.00,Wunderground v.1.15,2013-03-10 22:40:00,
2013-03-10 18:45:00,58.0,29.0,30.09,ESE,121,1.0,8.0,33,0.00,,,0.00,Wunderground v.1.15,2013-03-10 22:45:00,
2013-03-10 18:50:00,57.5,28.6,30.09,ESE,121,1.0,8.0,33,0.00,,,0.00,Wunderground v.1.15,2013-03-10 22:50:00,
2013-03-10 18:55:00,57.0,29.6,30.09,ESE,121,1.0,8.0,35,0.00,,,0.00,Wunderground v.1.15,2013-03-10 22:55:00,
2013-03-10 19:02:00,56.5,30.5,30.09,ESE,121,0.0,8.0,37,0.00,,,0.00,Wunderground v.1.15,2013-03-10 23:02:00,
2013-03-10 19:08:00,55.9,31.9,30.09,ESE,121,0.0,8.0,40,0.00,,,0.00,Wunderground v.1.15,2013-03-10 23:08:00,
2013-03-10 19:13:00,55.4,32.1,30.09,ESE,121,0.0,8.0,41,0.00,,,0.00,Wunderground v.1.15,2013-03-10 23:13:00,
2013-03-10 19:18:00,54.8,32.7,30.08,ESE,121,0.0,8.0,43,0.00,,,0.00,Wunderground v.1.15,2013-03-10 23:18:00,
2013-03-10 19:23:00,54.4,34.0,30.08,ESE,121,0.0,8.0,46,0.00,,,0.00,Wunderground v.1.15,2013-03-10 23:23:00,
2013-03-10 19:29:00,53.9,33.6,30.09,ESE,121,0.0,8.0,46,0.00,,,0.00,Wunderground v.1.15,2013-03-10 23:29:00,
2013-03-10 19:35:00,53.3,34.1,30.09,ESE,121,0.0,8.0,48,0.00,,,0.00,Wunderground v.1.15,2013-03-10 23:35:00,
2013-03-10 19:41:00,52.9,34.2,30.09,ESE,121,0.0,8.0,49,0.00,,,0.00,Wunderground v.1.15,2013-03-10 23:41:00,
2013-03-10 19:47:00,52.5,34.9,30.09,ESE,121,0.0,8.0,51,0.00,,,0.00,Wunderground v.1.15,2013-03-10 23:47:00,
2013-03-10 19:52:00,52.2,35.1,30.09,ESE,121,0.0,8.0,52,0.00,,,0.00,Wunderground v.1.15,2013-03-10 23:52:00,
2013-03-10 19:58:00,51.7,35.6,30.09,ESE,121,0.0,8.0,54,0.00,,,0.00,Wunderground v.1.15,2013-03-10 23:58:00,
2013-03-10 20:03:00,51.3,35.7,30.08,ESE,121,0.0,8.0,55,0.00,,,0.00,Wunderground v.1.15,2013-03-11 00:03:00,
2013-03-10 20:09:00,50.8,36.1,30.08,ESE,121,0.0,8.0,57,0.00,,,0.00,Wunderground v.1.15,2013-03-11 00:09:00,
2013-03-10 20:14:00,50.4,36.2,30.09,ESE,121,0.0,8.0,58,0.00,,,0.00,Wunderground v.1.15,2013-03-11 00:14:00,
2013-03-10 20:19:00,50.1,37.2,30.09,ESE,121,0.0,8.0,61,0.00,,,0.00,Wunderground v.1.15,2013-03-11 00:19:00,
2013-03-10 20:25:00,49.6,36.7,30.09,ESE,121,0.0,8.0,61,0.00,,,0.00,Wunderground v.1.15,2013-03-11 00:25:00,
2013-03-10 20:31:00,49.2,37.1,30.08,ESE,121,0.0,8.0,63,0.00,,,0.00,Wunderground v.1.15,2013-03-11 00:31:00,
2013-03-10 20:36:00,48.8,37.6,30.08,ESE,121,0.0,8.0,65,0.00,,,0.00,Wunderground v.1.15,2013-03-11 00:36:00,
2013-03-10 20:42:00,48.3,37.8,30.08,ESE,121,0.0,8.0,67,0.00,,,0.00,Wunderground v.1.15,2013-03-11 00:42:00,
2013-03-10 20:48:00,47.9,38.2,30.07,ESE,121,0.0,8.0,69,0.00,,,0.00,Wunderground v.1.15,2013-03-11 00:48:00,
2013-03-10 20:53:00,47.6,37.9,30.07,ESE,121,0.0,8.0,69,0.00,,,0.00,Wunderground v.1.15,2013-03-11 00:53:00,
2013-03-10 20:59:00,47.4,38.5,30.08,ESE,121,0.0,8.0,71,0.00,,,0.00,Wunderground v.1.15,2013-03-11 00:59:00,
2013-03-10 21:04:00,47.1,38.5,30.08,ESE,121,0.0,8.0,72,0.00,,,0.00,Wunderground v.1.15,2013-03-11 01:04:00,
2013-03-10 21:09:00,47.1,38.9,30.08,ESE,121,0.0,8.0,73,0.00,,,0.00,Wunderground v.1.15,2013-03-11 01:09:00,
2013-03-10 21:14:00,47.0,39.1,30.08,ESE,121,0.0,8.0,74,0.00,,,0.00,Wunderground v.1.15,2013-03-11 01:14:00,
2013-03-10 21:19:00,46.8,38.9,30.08,ESE,121,0.0,8.0,74,0.00,,,0.00,Wunderground v.1.15,2013-03-11 01:19:00,
2013-03-10 21:24:00,46.7,39.2,30.08,ESE,121,0.0,8.0,75,0.00,,,0.00,Wunderground v.1.15,2013-03-11 01:24:00,
2013-03-10 21:30:00,46.5,39.0,30.09,ESE,121,0.0,8.0,75,0.00,,,0.00,Wunderground v.1.15,2013-03-11 01:30:00,
2013-03-10 21:36:00,46.4,38.9,30.09,ESE,121,0.0,8.0,75,0.00,,,0.00,Wunderground v.1.15,2013-03-11 01:36:00,
2013-03-10 21:42:00,46.1,38.6,30.09,ESE,121,0.0,8.0,75,0.00,,,0.00,Wunderground v.1.15,2013-03-11 01:42:00,
2013-03-10 21:47:00,46.1,39.0,30.09,ESE,121,0.0,8.0,76,0.00,,,0.00,Wunderground v.1.15,2013-03-11 01:47:00,
2013-03-10 21:52:00,46.0,39.2,30.09,ESE,121,0.0,8.0,77,0.00,,,0.00,Wunderground v.1.15,2013-03-11 01:52:00,
2013-03-10 21:58:00,45.8,39.3,30.09,ESE,121,0.0,8.0,78,0.00,,,0.00,Wunderground v.1.15,2013-03-11 01:58:00,
2013-03-10 22:03:00,45.7,39.6,30.09,ESE,121,0.0,8.0,79,0.00,,,0.00,Wunderground v.1.15,2013-03-11 02:03:00,
2013-03-10 22:09:00,45.5,39.4,30.09,ESE,121,0.0,8.0,79,0.00,,,0.00,Wunderground v.1.15,2013-03-11 02:09:00,
2013-03-10 22:14:00,45.4,39.6,30.09,ESE,121,0.0,8.0,80,0.00,,,0.00,Wunderground v.1.15,2013-03-11 02:14:00,
2013-03-10 22:19:00,45.2,39.4,30.09,ESE,121,0.0,8.0,80,0.00,,,0.00,Wunderground v.1.15,2013-03-11 02:19:00,
2013-03-10 22:25:00,45.1,39.3,30.09,ESE,121,0.0,8.0,80,0.00,,,0.00,Wunderground v.1.15,2013-03-11 02:25:00,
2013-03-10 22:30:00,45.1,39.3,30.10,ESE,121,0.0,8.0,80,0.00,,,0.00,Wunderground v.1.15,2013-03-11 02:30:00,
2013-03-10 22:35:00,44.9,39.4,30.10,ESE,121,0.0,8.0,81,0.00,,,0.00,Wunderground v.1.15,2013-03-11 02:35:00,
2013-03-10 22:40:00,44.6,39.1,30.10,ESE,121,0.0,8.0,81,0.00,,,0.00,Wunderground v.1.15,2013-03-11 02:40:00,
2013-03-10 22:45:00,44.5,39.0,30.10,ESE,121,0.0,8.0,81,0.00,,,0.00,Wunderground v.1.15,2013-03-11 02:45:00,
2013-03-10 22:52:00,44.3,39.2,30.10,ESE,121,0.0,8.0,82,0.00,,,0.00,Wunderground v.1.15,2013-03-11 02:52:00,
2013-03-10 22:57:00,44.2,39.1,30.10,ESE,121,0.0,8.0,82,0.00,,,0.00,Wunderground v.1.15,2013-03-11 02:57:00,
2013-03-10 23:02:00,44.1,39.3,30.10,ESE,121,0.0,8.0,83,0.00,,,0.00,Wunderground v.1.15,2013-03-11 03:02:00,
2013-03-10 23:07:00,44.1,39.3,30.10,ESE,121,0.0,8.0,83,0.00,,,0.00,Wunderground v.1.15,2013-03-11 03:07:00,
2013-03-10 23:13:00,43.9,39.1,30.10,ESE,121,0.0,8.0,83,0.00,,,0.00,Wunderground v.1.15,2013-03-11 03:13:00,
2013-03-10 23:18:00,43.9,39.4,30.10,ESE,121,0.0,8.0,84,0.00,,,0.00,Wunderground v.1.15,2013-03-11 03:18:00,
2013-03-10 23:23:00,43.9,39.4,30.10,ESE,121,0.0,8.0,84,0.00,,,0.00,Wunderground v.1.15,2013-03-11 03:23:00,
2013-03-10 23:28:00,43.8,39.6,30.09,ESE,121,0.0,8.0,85,0.00,,,0.00,Wunderground v.1.15,2013-03-11 03:28:00,
2013-03-10 23:34:00,43.8,39.6,30.09,ESE,121,0.0,8.0,85,0.00,,,0.00,Wunderground v.1.15,2013-03-11 03:34:00,
2013-03-10 23:39:00,43.6,39.4,30.09,ESE,121,0.0,8.0,85,0.00,,,0.00,Wunderground v.1.15,2013-03-11 03:39:00,
2013-03-10 23:44:00,43.6,39.4,30.08,ESE,121,0.0,8.0,85,0.00,,,0.00,Wunderground v.1.15,2013-03-11 03:44:00,
2013-03-10 23:49:00,43.5,39.3,30.08,ESE,121,0.0,8.0,85,0.00,,,0.00,Wunderground v.1.15,2013-03-11 03:49:00,
2013-03-10 23:55:00,43.5,39.6,30.08,ESE,121,0.0,8.0,86,0.00,,,0.00,Wunderground v.1.15,2013-03-11 03:55:00,